Regional Weather Roundup
Issued by NWS

Home | Current Version | Previous Version | Text Only | Print | Product List | Glossary Off
Versions: 1 2 3 4 5 6 7 8 9 10 11 12 13 14 15 16 17 18 19 20 21 22 23 24 25 26 27 28 29 30 31 32 33 34 35 36 37 38 39 40 41 42 43 44 45 46 47 48 49 50

000
ASUS43 KLOT 271608
RWRIL

ILLINOIS REGIONAL WEATHER ROUNDUP
NATIONAL WEATHER SERVICE CHICAGO/ROMEOVILLE IL
1100 AM CDT WED MAY 27 2015

NOTE: "FAIR" INDICATES FEW OR NO CLOUDS BELOW 12,000 FEET WITH NO
SIGNIFICANT WEATHER AND/OR OBSTRUCTIONS TO VISIBILITY.

* THESE STATIONS ARE NOT UNDER NWS QUALITY CONTROL. THEY ALSO MAY NOT
  REPORT WEATHER SUCH AS PRECIPITATION OR FOG.

ILZ001-002-007-009-015-016-024-271700-
NORTHWEST ILLINOIS

CITY           SKY/WX    TMP DP  RH WIND       PRES   REMARKS
MOLINE         MOSUNNY   71  58  63 W10       30.02R
STERLING*      MOSUNNY   72  61  68 W15G21    30.00R
SAVANNA*       CLOUDY    67  56  69 W12       30.01R
$$

ILZ003-004-008-010-011-017-018-271700-
NORTH CENTRAL ILLINOIS

CITY           SKY/WX    TMP DP  RH WIND       PRES   REMARKS
ROCKFORD       PTSUNNY   66  57  72 W18G24    29.99R
FREEPORT*      PTSUNNY   65  58  80 W13       30.01R
ROCHELLE*      CLOUDY    67  59  75 W20       30.00R
DE KALB*       PTSUNNY   67  58  74 W15G24    29.99R
PERU*          CLOUDY    70  59  69 W13       30.01R
$$

ILZ005-006-012>014-019>023-271700-
NORTHEAST ILLINOIS

CITY           SKY/WX    TMP DP  RH WIND       PRES   REMARKS
CHICAGO-OHARE  PTSUNNY   69  58  67 W15G23    29.95R
CHICAGO-MIDWAY PTSUNNY   73  58  59 W22       29.96R
AURORA         PTSUNNY   70  59  68 W18G26    29.98R
LANSING*       PTSUNNY   72  55  55 SW17G26   29.97S
JOLIET*        PTSUNNY   72  61  66 SW15      29.99R
WAUKEGAN       RAIN      62  60  93 VRB6      29.94R VSB 1
DUPAGE AIRPORT PTSUNNY   69  59  70 W13G22    29.97R
KANKAKEE*      PTSUNNY   72  63  72 W17       30.00R
WHEELING       PTSUNNY   70  57  63 W17G25    29.96R
MORRIS*        PTSUNNY   72  60  66 W14G22    29.98R
ROMEOVILLE*    PTSUNNY   70  59  67 W20       29.98S
NORTHERLY ISL    N/A     71  54  54 SW18        N/A
$$

LMZ740>746-271700-
SOUTHERN LAKE MICHIGAN

STATION/POSITION SKY/WX   TEMP    WIND        PRES    VSBY  WAVE
                          AIR SEA DIR/SP/G                  HT/PER
                          (F)     (DEG/KT/KT) (MB)    (MI)  (FT/S)
SOUTHERN BUOY              45 38  200/  8/  8 1014.3R         1/ 4
HARRISON CRIB              69     230/ 19/ 24   N/A
BURNHAM HARBOR             72     290/ 12/ 18   N/A
CALUMET HARBOR             72     240/  9/ 15   N/A
BURNS HARBOR               71     230/ 17/ 24 1014.9S
MICHIGAN CITY              66     220/ 18/ 21   N/A
MICHIGAN CITY 6N           58 52  260/  6/ 10   N/A           1/ 3
ST. JOSEPH                 58 55  270/  6/  8   N/A           2/ 3
$$

ILZ025>027-034>036-040-047-049-050-058-095>099-271700-
WEST-CENTRAL ILLINOIS

CITY           SKY/WX    TMP DP  RH WIND       PRES   REMARKS
QUINCY         MOSUNNY   70  57  63 NW15      30.05R
GALESBURG*     PTSUNNY   69  59  69 W10G16    30.03R
MACOMB*        MOSUNNY   69  59  70 W10       30.06R
JACKSONVILLE*  CLOUDY    74  62  65 W10       30.05R
PITTSFIELD*    MOSUNNY   73  60  64 W12G17    30.06S
$$

ILZ028>032-037-038-041>044-048-051>054-059>061-271700-
CENTRAL ILLINOIS

CITY           SKY/WX    TMP DP  RH WIND       PRES   REMARKS
PONTIAC        CLOUDY    74  61  63 W16G23    30.01S
BLOOMINGTON    LGT RAIN  71  64  78 W14       30.03S
DECATUR        CLOUDY    73  64  73 SW16      30.04R
PEORIA         CLOUDY    74  61  63 W9        30.02R
LACON*         PTSUNNY   71  58  64 W10G16    30.00R
LINCOLN*       CLOUDY    74  65  74 SW6       30.01R
SPRINGFIELD    CLOUDY    74  64  71 SW14      30.04R
TAYLORVILLE    CLOUDY    70  64  83 SW12      30.05R
$$

ILZ033-039-045-046-055>057-062-063-271700-
EAST-CENTRAL ILLINOIS

CITY           SKY/WX    TMP DP  RH WIND       PRES   REMARKS
CHAMPAIGN      CLOUDY    74  65  73 SW21      30.04R
DANVILLE*      CLOUDY    72  65  79 SW13      30.01R
RANTOUL*       DRIZZLE   71  67  89 SW15G24   30.03S
MATTOON        CLOUDY    72  61  68 SW14G21   30.05F
PARIS*         PTSUNNY   78  63  60 SW17G24   30.06F HX  80
$$

ILZ079-100>102-271700-
SOUTHWEST ILLINOIS

CITY           SKY/WX    TMP DP  RH WIND       PRES   REMARKS
ALTON          PTSUNNY   75  66  73 S9        30.06R
BELLEVILLE     CLOUDY    75  65  70 SW10      30.05R
CAHOKIA*       CLOUDY    73  61  65 W12       30.06R
SPARTA*        CLOUDY    70  65  83 W7        30.08R
$$

ILZ064>066-069>071-074>076-080>082-084>086-088>090-092>094-271700-
SOUTH-CENTRAL ILLINOIS

CITY           SKY/WX    TMP DP  RH WIND       PRES   REMARKS
CARBONDALE     CLOUDY    69  63  81 VRB3      30.06F
CAIRO*         LGT RAIN  71  62  73 SE8       30.09F
EFFINGHAM*     CLOUDY    70  57  64 S6        30.08S
MARION         PTSUNNY   70  66  88 MISG      30.05F
MT. VERNON     CLOUDY    70  63  78 W6        30.08R
CENTRALIA*     CLOUDY    69  62  79 S6        30.07F
SALEM*         CLOUDY    69  62  79 S6        30.05S
METROPOLIS*    MOSUNNY   73  66  80 CALM      30.11F
$$

ILZ067-068-072-073-078-083-087-091-271700-
SOUTHEAST ILLINOIS

CITY           SKY/WX    TMP DP  RH WIND       PRES   REMARKS
LAWRENCEVILLE  PTSUNNY   73  62  68 W13       30.10S
FLORA*         PTSUNNY   69  61  77 SW6       30.07F
FAIRFIELD*     CLOUDY    70  62  77 S6        30.05F
HARRISBURG*    PTSUNNY   71  65  80 S6        30.09F
ROBINSON*      PTSUNNY   75  61  62 W17G24    30.10R
CARMI*         CLOUDY    73  61  64 S5        30.09F
$$

ABBREVIATIONS USED IN REMARKS
   TC - TEMPERATURE IN CELSIUS
  WCI - WIND CHILL INDEX
   HX - HEAT INDEX
  VSB - VISIBILITY
$$




USA.gov is the U.S. government's official web portal to all federal, state and local government web resources and services.